Weather History for De Queen, AR

Change the Weather History Date:

Thursday, June 13, 2013

  Actual Average Record
Temperature  
Mean Temperature 82 °F 77 °F  
Max Temperature 94 °F 88 °F 99 °F (1953)
Min Temperature 69 °F 66 °F 51 °F (1985)
Degree Days  
Heating Degree Days 0 0  
Month to date heating degree days 0 0  
Since 1 June heating degree days 0 0  
Since 1 July heating degree days 3050 3042  
Cooling Degree Days 17 12  
Month to date cooling degree days 127 138  
Year to date cooling degree days 359 355  
Since 1 June cooling degree days 127 138  
Growing Degree Days 31 (Base 50)    
Moisture  
Dew Point 72 °F    
Average Humidity 75    
Maximum Humidity 100    
Minimum Humidity 49    
Precipitation  
Precipitation 0.00 in 0.15 in 2.15 in (1989)
Month to date precipitation 0.57 1.91  
Year to date precipitation 11.67 23.04  
Snow  
Snow 0.00 in - - ()
Month to date snowfall 0.0  
Since 1 June snowfall 0.0  
Since 1 July snowfall 4.5  
Snow Depth 0.00 in    
Sea Level Pressure  
Sea Level Pressure 29.96 in    
Wind  
Wind Speed 4 mph (West)    
Max Wind Speed 14 mph    
Max Gust Speed 19 mph    
Visibility 4 miles    
Events Fog    
T = Trace of Precipitation, MM = Missing Value Source: NWS Daily Summary

Daily Weather History Graph

Daily Weather History Graph

Search for Another Location

Airport:

Trip Planner

Search our weather history database for the weather conditions in past years. The results will help you decide how hot, cold, wet, or windy it might be!

Date:

Astronomy

Jun. 13, 2013 Rise Set
Actual Time 6:05 AM CDT 8:29 PM CDT
Civil Twilight 5:36 AM CDT 8:59 PM CDT
Nautical Twilight 5:00 AM CDT 9:35 PM CDT
Astronomical Twilight 4:21 AM CDT 10:14 PM CDT
Moon 10:32 AM CDT (6/13) 11:48 PM CDT (6/13)
Length of Visible Light 15h 22m
Length of Day
14h 24m
Waxing Crescent, 22% of the Moon is Illuminated
Jun 13
Waxing Crescent
Jun 16
First Quarter
Jun 23
Full
Jun 29
Last Quarter
Jul 8
New

Hourly Weather History & Observations

Time (CDT) Temp. Heat Index Dew Point Humidity Pressure Visibility Wind Dir Wind Speed Gust Speed Precip Events Conditions
12:23 AM 73.0 °F - 72.0 °F 96% 29.97 in 0.8 mi Calm Calm - N/A   Mist
12:41 AM 73.0 °F - 72.0 °F 96% 29.97 in 0.2 mi Calm Calm - N/A Fog Fog
12:53 AM 72.0 °F - 71.1 °F 97% 29.96 in 0.2 mi Calm Calm - N/A Fog Fog
1:04 AM 73.0 °F - 72.0 °F 96% 29.97 in 1.0 mi Calm Calm - N/A   Mist
1:07 AM 72.0 °F - 71.1 °F 97% 29.97 in 2.0 mi Calm Calm - N/A   Partly Cloudy
1:09 AM 72.0 °F - 71.1 °F 97% 29.97 in 1.0 mi Calm Calm - N/A   Mist
1:13 AM 71.1 °F - 70.0 °F 96% 29.97 in 0.2 mi Calm Calm - N/A Fog Fog
1:53 AM 71.1 °F - 70.0 °F 96% 29.96 in 0.2 mi Calm Calm - N/A Fog Fog
2:53 AM 71.1 °F - 70.0 °F 96% 29.95 in 0.2 mi Calm Calm - N/A Fog Fog
3:26 AM 70.0 °F - 69.1 °F 97% 29.97 in 0.8 mi Calm Calm - N/A   Mist
3:32 AM 70.0 °F - 69.1 °F 97% 29.97 in 1.2 mi Calm Calm - N/A   Scattered Clouds
3:41 AM 71.1 °F - 70.0 °F 96% 29.97 in 2.5 mi Calm Calm - N/A   Partly Cloudy
3:53 AM 70.0 °F - 69.1 °F 97% 29.96 in 1.8 mi Calm Calm - N/A   Clear
4:05 AM 69.1 °F - 68.0 °F 96% 29.97 in 0.5 mi Calm Calm - N/A Fog Fog
4:09 AM 70.0 °F - 68.0 °F 93% 29.97 in 0.5 mi Variable 3.5 mph - N/A Fog Fog
4:19 AM 70.0 °F - 69.1 °F 97% 29.97 in 1.5 mi Calm Calm - N/A   Partly Cloudy
4:39 AM 70.0 °F - 69.1 °F 97% 29.98 in 3.0 mi Calm Calm - N/A   Clear
4:46 AM 69.1 °F - 68.0 °F 96% 29.98 in 1.5 mi ENE 3.5 mph - N/A   Clear
4:53 AM 69.1 °F - 68.0 °F 96% 29.96 in 1.0 mi East 3.5 mph - N/A   Clear
5:18 AM 70.0 °F - 69.1 °F 97% 29.98 in 3.0 mi Calm Calm - N/A   Clear
5:34 AM 70.0 °F - 68.0 °F 93% 29.98 in 1.8 mi Calm Calm - N/A   Clear
5:45 AM 69.1 °F - 68.0 °F 96% 29.98 in 0.5 mi Calm Calm - N/A Fog Fog
5:53 AM 69.1 °F - 68.0 °F 96% 29.97 in 1.0 mi Calm Calm - N/A   Clear
6:27 AM 69.1 °F - 68.0 °F 96% 30.00 in 0.8 mi Calm Calm - N/A   Clear
6:43 AM 70.0 °F - 69.1 °F 97% 30.00 in 2.0 mi Calm Calm - N/A   Clear
6:53 AM 71.1 °F - 70.0 °F 96% 29.99 in 3.0 mi Calm Calm - N/A   Clear
7:07 AM 72.0 °F - 70.0 °F 93% 30.00 in 2.0 mi Calm Calm - N/A   Clear
7:38 AM 73.9 °F - 71.1 °F 91% 30.01 in 3.0 mi Calm Calm - N/A   Clear
7:53 AM 75.9 °F - 72.0 °F 87% 30.00 in 6.0 mi Calm Calm - N/A   Clear
8:53 AM 80.1 °F 84.2 °F 73.0 °F 79% 30.01 in 8.0 mi West 8.1 mph - N/A   Clear
9:53 AM 84.0 °F 89.6 °F 72.0 °F 67% 30.01 in 10.0 mi West 10.4 mph - N/A   Clear
10:53 AM 87.1 °F 93.6 °F 72.0 °F 61% 30.00 in 10.0 mi West 10.4 mph - N/A   Clear
11:53 AM 89.1 °F 97.0 °F 73.0 °F 59% 29.99 in 10.0 mi WSW 10.4 mph - N/A   Clear
12:53 PM 91.0 °F 99.3 °F 73.0 °F 55% 29.98 in 10.0 mi WNW 8.1 mph - N/A   Clear
1:53 PM 91.9 °F 100.7 °F 73.0 °F 54% 29.96 in 10.0 mi West 11.5 mph - N/A   Clear
2:53 PM 93.0 °F 100.7 °F 72.0 °F 50% 29.94 in 10.0 mi WSW 6.9 mph 18.4 mph N/A   Clear
3:53 PM 93.9 °F 103.4 °F 73.0 °F 51% 29.92 in 10.0 mi West 9.2 mph - N/A   Clear
4:53 PM 93.9 °F 103.4 °F 73.0 °F 51% 29.89 in 10.0 mi West 5.8 mph - N/A   Clear
5:53 PM 93.0 °F 101.9 °F 73.0 °F 52% 29.88 in 10.0 mi WSW 6.9 mph - N/A   Clear
6:53 PM 91.9 °F 101.3 °F 73.9 °F 55% 29.86 in 10.0 mi SW 5.8 mph - N/A   Clear
7:53 PM 89.1 °F 100.2 °F 75.9 °F 65% 29.87 in 10.0 mi SW 3.5 mph - N/A   Clear
8:53 PM 82.9 °F 92.8 °F 78.1 °F 85% 29.88 in 10.0 mi Calm Calm - N/A   Clear
9:53 PM 80.1 °F 85.8 °F 77.0 °F 90% 29.89 in 9.0 mi Calm Calm - N/A   Clear
10:53 PM 79.0 °F - 77.0 °F 94% 29.91 in 6.0 mi Calm Calm - N/A   Clear
11:28 PM 78.1 °F - 75.9 °F 93% 29.93 in 1.5 mi Calm Calm - N/A   Clear
11:35 PM 77.0 °F - 75.0 °F 94% 29.93 in 0.8 mi Calm Calm - N/A   Mist
11:47 PM 77.0 °F - 75.2 °F 94% 29.93 in 1.5 mi Calm Calm - N/A   Partly Cloudy
11:51 PM 77.0 °F - 75.2 °F 94% 29.93 in 3.0 mi Calm Calm - N/A   Partly Cloudy
11:53 PM 77.0 °F - 75.9 °F 96% 29.91 in 3.0 mi Calm Calm - N/A   Partly Cloudy